Wrangell, AK

6:16 PM AKST on January 17, 2018 (GMT -0900)
Wrangell

Weather History for PAWG - April, 2014

Change the Weather History Date:

Monday, April 21, 2014

  Actual Average Record
Temperature  
Mean Temperature 42 °F -  
Max Temperature 48 °F 50 °F 65 °F (1956)
Min Temperature 37 °F 35 °F 24 °F (1968)
Degree Days  
Heating Degree Days 22    
Moisture  
Dew Point 34 °F    
Average Humidity 66    
Maximum Humidity 81    
Minimum Humidity 50    
Precipitation  
Precipitation 0.00 in - - ()
Sea Level Pressure  
Sea Level Pressure 30.00 in    
Wind  
Wind Speed 8 mph (SE)    
Max Wind Speed 21 mph    
Max Gust Speed 29 mph    
Visibility 10 miles    
Events      
Averages and records for this station are not official NWS values.
T = Trace of Precipitation, MM = Missing Value Source: NWS Daily Summary

Daily Weather History Graph

Daily Weather History Graph

Search for Another Location

Airport or City:

Trip Planner

Search our weather history database for the weather conditions in past years. The results will help you decide how hot, cold, wet, or windy it might be!

Date:

Astronomy

Apr. 21, 2014 Rise Set
Actual Time 5:27 AM AKDT 8:10 PM AKDT
Civil Twilight 4:44 AM AKDT 8:53 PM AKDT
Nautical Twilight 3:49 AM AKDT 9:49 PM AKDT
Astronomical Twilight 2:36 AM AKDT 11:04 PM AKDT
Moon 2:01 AM AKDT (4/21) 10:48 AM AKDT (4/21)
Length of Visible Light 16h 08m
Length of Day
14h 43m
Waning Gibbous, 56% of the Moon is Illuminated
Apr 21
Waning Gibbous
Apr 21
Last Quarter
Apr 28
New
May 6
First Quarter
May 14
Full

Hourly Weather History & Observations

Time (AKDT) Temp. Windchill Dew Point Humidity Pressure Visibility Wind Dir Wind Speed Gust Speed Precip Events Conditions
12:16 AM 42.8 °F 36.6 °F 35.6 °F 76% 29.89 in 10.0 mi SSE 11.5 mph - N/A   Partly Cloudy
12:36 AM 42.8 °F 39.3 °F 35.6 °F 76% 29.90 in 10.0 mi SE 5.8 mph - N/A   Scattered Clouds
12:56 AM 44.6 °F 39.2 °F 35.6 °F 71% 29.90 in 10.0 mi East 10.4 mph - N/A   Partly Cloudy
1:16 AM 44.6 °F 39.7 °F 37.4 °F 76% 29.90 in 10.0 mi East 9.2 mph - N/A   Partly Cloudy
1:36 AM 44.6 °F 38.8 °F 35.6 °F 71% 29.90 in 10.0 mi ESE 11.5 mph - N/A   Scattered Clouds
1:56 AM 44.6 °F 38.1 °F 35.6 °F 71% 29.90 in 10.0 mi East 13.8 mph 18.4 mph N/A   Partly Cloudy
2:16 AM 44.6 °F 38.8 °F 35.6 °F 71% 29.91 in 10.0 mi ESE 11.5 mph - N/A   Clear
2:36 AM 44.6 °F 37.4 °F 33.8 °F 66% 29.92 in 10.0 mi SE 16.1 mph 20.7 mph N/A   Clear
2:56 AM 46.4 °F 41.9 °F 32.0 °F 57% 29.94 in 10.0 mi ESE 9.2 mph 19.6 mph N/A   Clear
3:16 AM 46.4 °F 41.9 °F 33.8 °F 62% 29.95 in 10.0 mi SE 9.2 mph 20.7 mph N/A   Scattered Clouds
3:36 AM 46.4 °F 40.4 °F 30.2 °F 53% 29.95 in 10.0 mi SE 13.8 mph 21.9 mph N/A   Mostly Cloudy
3:56 AM 46.4 °F 38.7 °F 30.2 °F 53% 29.94 in 10.0 mi SE 20.7 mph 28.8 mph N/A   Partly Cloudy
4:16 AM 46.4 °F 39.5 °F 30.2 °F 53% 29.96 in 10.0 mi SE 17.3 mph 24.2 mph N/A   Clear
4:36 AM 46.4 °F 41.5 °F 28.4 °F 50% 29.98 in 10.0 mi SE 10.4 mph 23.0 mph N/A   Clear
4:56 AM 46.4 °F 39.2 °F 28.4 °F 50% 29.97 in 10.0 mi SSE 18.4 mph 27.6 mph N/A   Clear
5:16 AM 44.6 °F 42.2 °F 30.2 °F 57% 29.99 in 10.0 mi SSW 4.6 mph 16.1 mph N/A   Clear
5:36 AM 44.6 °F 41.4 °F 30.2 °F 57% 30.00 in 10.0 mi SSE 5.8 mph - N/A   Mostly Cloudy
5:56 AM 46.4 °F 44.3 °F 30.2 °F 53% 30.01 in 10.0 mi South 4.6 mph - N/A   Mostly Cloudy
6:16 AM 44.6 °F 43.1 °F 33.8 °F 66% 30.01 in 10.0 mi SSE 3.5 mph - N/A   Mostly Cloudy
6:36 AM 44.6 °F 40.7 °F 33.8 °F 66% 30.01 in 10.0 mi ESE 6.9 mph - N/A   Mostly Cloudy
6:56 AM 44.6 °F 40.7 °F 32.0 °F 61% 30.02 in 10.0 mi East 6.9 mph - N/A   Mostly Cloudy
7:16 AM 44.6 °F 40.2 °F 33.8 °F 66% 30.02 in 10.0 mi East 8.1 mph - N/A   Mostly Cloudy
7:36 AM 44.6 °F 40.7 °F 33.8 °F 66% 30.03 in 10.0 mi SE 6.9 mph - N/A   Mostly Cloudy
7:56 AM 44.6 °F 42.2 °F 33.8 °F 66% 30.03 in 10.0 mi SE 4.6 mph - N/A   Mostly Cloudy
8:16 AM 44.6 °F 42.2 °F 33.8 °F 66% 30.03 in 10.0 mi SE 4.6 mph - N/A   Mostly Cloudy
8:36 AM 44.6 °F 42.2 °F 33.8 °F 66% 30.03 in 10.0 mi SE 4.6 mph - N/A   Mostly Cloudy
8:56 AM 44.6 °F 40.7 °F 33.8 °F 66% 30.04 in 10.0 mi SE 6.9 mph - N/A   Mostly Cloudy
9:16 AM 44.6 °F 41.4 °F 33.8 °F 66% 30.04 in 10.0 mi ESE 5.8 mph - N/A   Mostly Cloudy
9:36 AM 44.6 °F 43.1 °F 35.6 °F 71% 30.03 in 10.0 mi ESE 3.5 mph - N/A   Mostly Cloudy
9:56 AM 46.4 °F - 35.6 °F 66% 30.04 in 10.0 mi Calm Calm - N/A   Mostly Cloudy
10:16 AM 46.4 °F - 33.8 °F 62% 30.04 in 10.0 mi Calm Calm - N/A   Mostly Cloudy
10:36 AM 46.4 °F 45.2 °F 35.6 °F 66% 30.04 in 10.0 mi East 3.5 mph - N/A   Mostly Cloudy
10:56 AM 48.2 °F - 33.8 °F 58% 30.04 in 10.0 mi SW 8.1 mph - N/A   Mostly Cloudy
11:16 AM 46.4 °F 41.1 °F 33.8 °F 62% 30.04 in 10.0 mi SW 11.5 mph - N/A   Mostly Cloudy
11:36 AM 46.4 °F - 35.6 °F 66% 30.04 in 10.0 mi Calm Calm - N/A   Mostly Cloudy
11:56 AM 48.2 °F - 33.8 °F 58% 30.04 in 10.0 mi West 3.5 mph - N/A   Mostly Cloudy
12:16 PM 48.2 °F - 33.8 °F 58% 30.04 in 10.0 mi WNW 4.6 mph - N/A   Mostly Cloudy
12:36 PM 48.2 °F - 33.8 °F 58% 30.04 in 10.0 mi West 4.6 mph - N/A   Mostly Cloudy
12:56 PM 48.2 °F - 35.6 °F 62% 30.04 in 10.0 mi NE 4.6 mph - N/A   Mostly Cloudy
1:16 PM 46.4 °F 41.9 °F 33.8 °F 62% 30.04 in 10.0 mi SSW 9.2 mph - N/A   Mostly Cloudy
1:36 PM 46.4 °F 41.1 °F 33.8 °F 62% 30.04 in 10.0 mi WSW 11.5 mph - N/A   Mostly Cloudy
1:56 PM 46.4 °F 42.4 °F 33.8 °F 62% 30.04 in 10.0 mi SW 8.1 mph - N/A   Mostly Cloudy
2:16 PM 46.4 °F 45.2 °F 35.6 °F 66% 30.04 in 10.0 mi SSE 3.5 mph - N/A   Mostly Cloudy
2:36 PM 46.4 °F 44.3 °F 33.8 °F 62% 30.05 in 10.0 mi SE 4.6 mph - N/A   Mostly Cloudy
2:56 PM 46.4 °F 40.7 °F 35.6 °F 66% 30.05 in 10.0 mi East 12.7 mph - N/A   Mostly Cloudy
3:16 PM 44.6 °F 42.2 °F 35.6 °F 71% 30.05 in 10.0 mi NE 4.6 mph - N/A   Overcast
3:36 PM 44.6 °F 42.2 °F 35.6 °F 71% 30.05 in 10.0 mi East 4.6 mph - N/A   Overcast
3:56 PM 46.4 °F 44.3 °F 35.6 °F 66% 30.04 in 10.0 mi ESE 4.6 mph - N/A   Overcast
4:16 PM 46.4 °F 45.2 °F 35.6 °F 66% 30.03 in 10.0 mi East 3.5 mph - N/A   Partly Cloudy
4:36 PM 46.4 °F - 33.8 °F 62% 30.03 in 10.0 mi Calm Calm - N/A   Partly Cloudy
4:56 PM 46.4 °F 45.2 °F 33.8 °F 62% 30.02 in 10.0 mi SE 3.5 mph - N/A   Partly Cloudy
5:16 PM 46.4 °F 42.4 °F 35.6 °F 66% 30.02 in 10.0 mi ESE 8.1 mph - N/A   Clear
5:36 PM 46.4 °F 40.7 °F 35.6 °F 66% 30.02 in 10.0 mi East 12.7 mph - N/A   Partly Cloudy
5:56 PM 46.4 °F 42.9 °F 35.6 °F 66% 30.01 in 10.0 mi ESE 6.9 mph - N/A   Partly Cloudy
6:16 PM 46.4 °F 41.9 °F 35.6 °F 66% 30.01 in 10.0 mi SE 9.2 mph - N/A   Clear
6:36 PM 44.6 °F 41.4 °F 35.6 °F 71% 30.00 in 10.0 mi ESE 5.8 mph - N/A   Clear
6:56 PM 44.6 °F 43.1 °F 35.6 °F 71% 30.00 in 10.0 mi SE 3.5 mph - N/A   Clear
7:16 PM 44.6 °F 43.1 °F 35.6 °F 71% 29.99 in 10.0 mi SE 3.5 mph - N/A   Scattered Clouds
7:36 PM 44.6 °F - 35.6 °F 71% 29.99 in 10.0 mi Calm Calm - N/A   Scattered Clouds
7:56 PM 42.8 °F 41.1 °F 33.8 °F 70% 29.99 in 10.0 mi South 3.5 mph - N/A   Scattered Clouds
8:16 PM 42.8 °F 41.1 °F 33.8 °F 70% 29.99 in 10.0 mi SW 3.5 mph - N/A   Clear
8:36 PM 42.8 °F - 33.8 °F 70% 29.99 in 10.0 mi Calm Calm - N/A   Clear
8:56 PM 39.2 °F 37.0 °F 33.8 °F 81% 29.99 in 10.0 mi SE 3.5 mph - N/A   Clear
9:16 PM 39.2 °F - 32.0 °F 75% 29.98 in 10.0 mi Calm Calm - N/A   Clear
9:36 PM 37.4 °F - 30.2 °F 75% 29.98 in 10.0 mi Calm Calm - N/A   Clear
9:56 PM 37.4 °F 33.8 °F 30.2 °F 75% 29.98 in 10.0 mi SE 4.6 mph - N/A   Clear
10:16 PM 37.4 °F 33.8 °F 32.0 °F 81% 29.98 in 10.0 mi SE 4.6 mph - N/A   Clear
10:36 PM 37.4 °F 32.1 °F 30.2 °F 75% 29.97 in 10.0 mi SE 6.9 mph - N/A   Clear
10:56 PM 37.4 °F 32.1 °F 32.0 °F 81% 29.96 in 10.0 mi SE 6.9 mph - N/A   Clear
11:16 PM 37.4 °F 32.8 °F 32.0 °F 81% 29.96 in 5.0 mi SE 5.8 mph - N/A   Clear
11:36 PM 37.4 °F 32.1 °F 30.2 °F 75% 29.96 in 10.0 mi SSE 6.9 mph - N/A   Clear
11:56 PM 37.4 °F 32.8 °F 30.2 °F 75% 29.95 in 10.0 mi SE 5.8 mph - N/A   Clear